TimeEDT,TemperatureF,Dew PointF,Humidity,Sea Level PressureIn,VisibilityMPH,Wind Direction,Wind SpeedMPH,Gust SpeedMPH,PrecipitationIn,Events,Conditions,WindDirDegrees,DateUTC
12:15 AM,53.6,50.0,88,30.14,10.0,North,3.5,-,N/A,,Mostly Cloudy,10,2012-10-08 04:15:00
12:35 AM,53.6,50.0,88,30.14,10.0,NNE,5.8,-,N/A,,Mostly Cloudy,30,2012-10-08 04:35:00
12:55 AM,53.6,50.0,88,30.15,10.0,North,4.6,-,N/A,,Overcast,10,2012-10-08 04:55:00
1:15 AM,53.6,50.0,88,30.15,10.0,North,3.5,-,N/A,,Overcast,360,2012-10-08 05:15:00
1:35 AM,53.6,50.0,88,30.14,10.0,North,5.8,-,N/A,,Overcast,360,2012-10-08 05:35:00
1:55 AM,53.6,50.0,88,30.15,10.0,North,4.6,-,N/A,,Overcast,360,2012-10-08 05:55:00
2:15 AM,53.6,50.0,88,30.15,10.0,NNE,5.8,-,N/A,,Overcast,30,2012-10-08 06:15:00
2:35 AM,53.6,50.0,88,30.15,10.0,North,3.5,-,N/A,,Overcast,10,2012-10-08 06:35:00
2:55 AM,53.6,50.0,88,30.14,10.0,North,4.6,-,N/A,,Overcast,10,2012-10-08 06:55:00
3:15 AM,53.6,50.0,88,30.14,10.0,North,3.5,-,N/A,,Overcast,360,2012-10-08 07:15:00
3:35 AM,53.6,50.0,88,30.13,10.0,North,4.6,-,N/A,,Overcast,10,2012-10-08 07:35:00
3:55 AM,53.6,50.0,88,30.14,10.0,North,4.6,-,N/A,,Overcast,10,2012-10-08 07:55:00
4:15 AM,53.6,50.0,88,30.14,10.0,North,4.6,-,N/A,,Overcast,360,2012-10-08 08:15:00
4:35 AM,53.6,48.2,82,30.13,10.0,NNE,10.4,-,N/A,,Overcast,30,2012-10-08 08:35:00
4:55 AM,53.6,48.2,82,30.15,10.0,NNE,5.8,-,N/A,,Overcast,30,2012-10-08 08:55:00
5:15 AM,53.6,46.4,77,30.14,10.0,NE,10.4,-,N/A,,Overcast,40,2012-10-08 09:15:00
5:55 AM,53.6,46.4,77,30.15,10.0,NE,5.8,-,N/A,,Overcast,40,2012-10-08 09:55:00
6:15 AM,53.6,46.4,77,30.16,10.0,NE,11.5,17.3,N/A,,Overcast,40,2012-10-08 10:15:00
6:35 AM,53.6,44.6,72,30.16,10.0,NE,10.4,-,N/A,,Overcast,50,2012-10-08 10:35:00
6:55 AM,53.6,44.6,72,30.17,10.0,NE,11.5,16.1,N/A,,Overcast,50,2012-10-08 10:55:00
7:15 AM,53.6,44.6,72,30.18,10.0,NE,6.9,-,N/A,,Overcast,40,2012-10-08 11:15:00
7:35 AM,53.6,44.6,72,30.18,10.0,NE,8.1,-,N/A,,Overcast,40,2012-10-08 11:35:00
7:55 AM,53.6,44.6,72,30.19,10.0,NNE,9.2,-,N/A,,Overcast,30,2012-10-08 11:55:00
8:15 AM,53.6,44.6,72,30.20,10.0,NNE,5.8,-,N/A,,Overcast,30,2012-10-08 12:15:00
8:35 AM,53.6,42.8,67,30.21,10.0,NE,12.7,18.4,N/A,,Overcast,50,2012-10-08 12:35:00
8:55 AM,53.6,44.6,72,30.21,10.0,NNE,5.8,-,N/A,,Overcast,20,2012-10-08 12:55:00
9:15 AM,51.8,46.4,82,30.21,7.0,NNE,8.1,-,0.06,Rain,Light Rain,20,2012-10-08 13:15:00
9:35 AM,51.8,46.4,82,30.21,10.0,NNE,10.4,-,0.06,Rain,Light Rain,30,2012-10-08 13:35:00
9:55 AM,50.0,46.4,87,30.21,7.0,North,5.8,-,0.12,Rain,Heavy Rain,10,2012-10-08 13:55:00
10:15 AM,50.0,50.0,100,30.20,7.0,NNE,6.9,-,0.04,Rain,Light Rain,20,2012-10-08 14:15:00
10:55 AM,51.8,48.2,88,30.20,10.0,NNE,8.1,-,0.04,,Overcast,20,2012-10-08 14:55:00
11:15 AM,51.8,48.2,88,30.19,10.0,NNE,9.2,-,N/A,,Overcast,30,2012-10-08 15:15:00
11:35 AM,51.8,50.0,94,30.18,10.0,NNE,8.1,-,N/A,,Overcast,30,2012-10-08 15:35:00
11:55 AM,51.8,48.2,88,30.18,10.0,North,3.5,-,N/A,,Overcast,360,2012-10-08 15:55:00
12:15 PM,50.0,48.2,94,30.18,10.0,North,4.6,-,N/A,Rain,Light Rain,360,2012-10-08 16:15:00
12:35 PM,50.0,48.2,94,30.18,10.0,North,3.5,-,N/A,,Overcast,360,2012-10-08 16:35:00
12:55 PM,50.0,50.0,100,30.18,10.0,North,3.5,-,0.01,Rain,Light Rain,360,2012-10-08 16:55:00
1:15 PM,50.0,48.2,94,30.16,3.0,North,5.8,-,N/A,,Overcast,10,2012-10-08 17:15:00
1:35 PM,50.0,48.2,94,30.16,2.0,North,5.8,-,N/A,,Overcast,360,2012-10-08 17:35:00
1:55 PM,50.0,48.2,94,30.15,3.0,North,6.9,-,N/A,Rain,Light Rain,360,2012-10-08 17:55:00
2:15 PM,48.2,48.2,100,30.14,1.2,North,5.8,-,0.09,Rain,Rain,360,2012-10-08 18:15:00
2:35 PM,48.2,48.2,100,30.15,2.5,North,5.8,-,0.16,Rain,Heavy Rain,350,2012-10-08 18:35:00
2:55 PM,50.0,48.2,94,30.13,7.0,North,6.9,-,0.17,,Overcast,350,2012-10-08 18:55:00
3:15 PM,50.0,48.2,94,30.14,10.0,North,6.9,-,N/A,,Overcast,10,2012-10-08 19:15:00
3:35 PM,50.0,50.0,100,30.14,10.0,North,5.8,-,N/A,,Overcast,360,2012-10-08 19:35:00
4:15 PM,50.0,50.0,100,30.13,10.0,North,6.9,-,N/A,,Overcast,360,2012-10-08 20:15:00
4:35 PM,50.0,50.0,100,30.12,10.0,NNE,8.1,-,N/A,,Overcast,20,2012-10-08 20:35:00
4:55 PM,50.0,50.0,100,30.12,10.0,North,8.1,-,N/A,Rain,Light Rain,10,2012-10-08 20:55:00
5:15 PM,50.0,50.0,100,30.12,10.0,NNE,8.1,-,N/A,,Overcast,20,2012-10-08 21:15:00
5:35 PM,50.0,50.0,100,30.12,10.0,North,5.8,-,N/A,,Overcast,10,2012-10-08 21:35:00
5:55 PM,50.0,50.0,100,30.13,10.0,North,5.8,-,N/A,,Overcast,360,2012-10-08 21:55:00
6:15 PM,50.0,50.0,100,30.12,10.0,NNE,8.1,-,N/A,,Overcast,20,2012-10-08 22:15:00
6:35 PM,50.0,50.0,100,30.12,10.0,North,4.6,-,N/A,,Overcast,360,2012-10-08 22:35:00
6:55 PM,50.0,50.0,100,30.13,10.0,North,4.6,-,N/A,,Overcast,360,2012-10-08 22:55:00
7:15 PM,50.0,50.0,100,30.12,10.0,North,5.8,-,N/A,,Overcast,10,2012-10-08 23:15:00
7:35 PM,50.0,50.0,100,30.12,10.0,North,5.8,-,N/A,,Overcast,360,2012-10-08 23:35:00
7:55 PM,50.0,50.0,100,30.13,4.0,North,5.8,-,0.03,Rain,Rain,10,2012-10-08 23:55:00
8:15 PM,50.0,50.0,100,30.13,5.0,North,6.9,-,0.01,,Drizzle,10,2012-10-09 00:15:00
8:35 PM,50.0,50.0,100,30.12,7.0,North,5.8,-,0.02,,Overcast,10,2012-10-09 00:35:00
9:15 PM,50.0,50.0,100,30.13,7.0,North,4.6,-,N/A,,Overcast,350,2012-10-09 01:15:00
10:15 PM,50.0,50.0,100,30.13,3.0,North,4.6,-,0.01,,Light Drizzle,360,2012-10-09 02:15:00
10:35 PM,50.0,50.0,100,30.14,4.0,Calm,Calm,-,0.01,,Overcast,0,2012-10-09 02:35:00
10:55 PM,50.0,50.0,100,30.13,5.0,North,6.9,-,0.01,,Overcast,360,2012-10-09 02:55:00
11:35 PM,50.0,50.0,100,30.13,5.0,North,3.5,-,N/A,,Overcast,10,2012-10-09 03:35:00
11:55 PM,50.0,50.0,100,30.13,5.0,North,3.5,-,N/A,,Overcast,350,2012-10-09 03:55:00